Preview of NWS' New Version of Forecast
This preview is not operational and should not be used for support decisions.

Regional Weather Roundup (RWR)

Issued by National Weather Service (NWS)

                            
000
ASUS43 KLSX 181357
RWRMO 

WEATHER SUMMARY FOR MISSOURI
NATIONAL WEATHER SERVICE SPRINGFIELD MO
900 AM CDT THU APR 18 2019

NOTE: "FAIR" INDICATES FEW OR NO CLOUDS BELOW 12,000 FEET WITH NO
       SIGNIFICANT WEATHER AND/OR OBSTRUCTIONS TO VISIBILITY.
       CURRENT SKY AND/OR WEATHER CONDITIONS ARE NOT AVAILABLE FOR
       CHILLICOTHE AND FARMINGTON.

MOZ001>031-035>038-043-044-053-054-181500-
...NORTHERN AND WESTERN MISSOURI...
  
CITY           SKY/WX    TMP DP  RH WIND       PRES   REMARKS
KANSAS CTY INT PTSUNNY   49  41  74 N18G24    29.87R                  
LEE'S SUMMIT   CLOUDY    49  40  71 N16       29.85R                  
ST JOSEPH      CLOUDY    50  42  74 N18       29.89R                  
CHILLICOTHE      N/A     49  40  71 NW8       29.84R                  
     
$$
MOZ066>068-077>081-088>096-101>105-181500-
...SOUTHWEST MISSOURI...
  
CITY           SKY/WX    TMP DP  RH WIND       PRES   REMARKS
SPRINGFIELD    CLOUDY    52  49  89 NW21G30   29.74S FOG              
JOPLIN         CLOUDY    52  48  86 N16G24    29.80F                  
BRANSON        FOG       57  57 100 NW5       29.73F VSB 1            
               
$$
MOZ032>034-039>042-045>050-055>058-069>072-181500-
...CENTRAL MISSOURI...  
  
CITY           SKY/WX    TMP DP  RH WIND       PRES   REMARKS
COLUMBIA       NOT AVBL                                               
JEFFERSON CITY CLOUDY    51  46  83 NW16G24   29.74S                  
ROLLA          CLOUDY    53  51  93 NW14      29.72R FOG              
SEDALIA        CLOUDY    47  44  90 N15       29.80R                  
OSAGE BEACH    CLOUDY    52  48  87 NW9       29.76R                  
               
$$
MOZ051-052-059>065-181500-
...EAST CENTRAL MISSOURI...
  
CITY           SKY/WX    TMP DP  RH WIND       PRES   REMARKS
ST LOUIS INTL  DRIZZLE   55  53  93 NW16      29.68R FOG              
                   
$$
MOZ072>076-082>087-097>100-106>115-181500-
...SOUTH CENTRAL AND SOUTHEAST MISSOURI...
  
CITY           SKY/WX    TMP DP  RH WIND       PRES   REMARKS
CAPE GIRARDEAU LGT RAIN  62  59  90 S10       29.70F                  
POPLAR BLUFF   LGT RAIN  61  61 100 S10       29.74R                  
WEST PLAINS    LGT RAIN  61  58  90 SW7       29.72F                  
                                       
$$